Showing default

PAUSAT-1, 62653

Orbit data source: Space-Track

PAUSAT-1, 62653 is a Turkish payload satellite in SSO that was launched on Tue, 14 Jan 2025 UTC via an FALCON 9 launch vehicle from the Air Force Western Test Range (AFWTR). Payload-class satellites include a variety of spacecraft equipped with specific instruments for various scientific and technological missions. These include communications satellites like Starlink; space stations such as the ISS; scientific satellites like the Hubble; Earth observation satellites from companies like Planet Labs, Umbra, and HawkEye 360; GPS; miniature CubeSats for education and research; and military/defense satellites.

Loading next visibility...
Identifier
62653, 2025-009AW
Orbit
SSO
Country
Flag of UnknownUnknown / TURK
Related business
Manufacturer
ITUTR/PAU
Mission
Operational Amateur Imaging
Bus & Motor
CUBESAT 16U, Unknown motor
Mass
~30 kg wet, ~30 kg dry
Launch date (UTC)
2025-01-14 (1 year ago)
Launch vehicle
FALCON 9
Launch site
Air Force Western Test Range (AFWTR)
Object type
Payload
Rocket body
Debris
Shape & HBR
Box + 2 Pan, 0.3 m
Radar Cross Section
0.124 m², Medium (>0.1 m² and < 1m²)

Expand to show TLE details & history
Last TLE update: 15 hours ago

TLE from 15 hours ago
0 PAUSAT-1
1 62653U 25009AW  26034.60766418  .00005464  00000-0  23972-3 0  9996
2 62653  97.4064 116.2164 0003009  81.5572 278.6006 15.22366687 58452
Epoch: 2026-02-03T14:35Z
TLE epoch observation values (Epoch: 2026-02-03T14:35:02.185Z)
Latitude
0.00006°
Longitude
123.67112°
Altitude
501.489 km
Speed
7.614 km/s
True Right ascension
07h 44m 51s
True Declination
0° 00' 00"
Sunlit
Object was in full shadow at epoch
Visualization orbit readout
Latitude
Unknown
Longitude
Unknown
Altitude
Unknown
Speed
Unknown
Apparent Right ascension
Unknown
Apparent Declination
Unknown
Sunlit
N/A
Visualization observer readout
Local Sidereal Time
07:09:27
Azimuth
Unknown
Elevation
Unknown
Doppler factor
Unknown
Orbital elements
Apogee altitude
497.735 km
Perigee altitude
493.599 km
Semi-major axis
6,873.804 km
Eccentricity
0.0003
Inclination
97.4064°
RAAN
116.2164°
Arg. of periapsis
81.5572°
True anomaly
278.56651°
Mean anomaly
278.6006°
Eccentric anomaly
278.58355°
Mean motion
3.80844 °/min
Orbital period
94.53 mins
BSTAR
0.00023972
Loading maneuver chart data...
Computing Atmospheric mass density...
Loading historical data...
Loading historical data...
Loading historical data...
Loading historical data...
Loading historical data...
Loading historical data...
Loading historical data...

Documentation

Showing up to 5 results
|